INTELSAT 906 (IS-906)

Last updated on Sat Sep 05 2026 00:03:01 GMT+0000 (Coordinated Universal Time)

1 27513U 02041A 26247.60858671 .00000005 00000+0 00000+0 0 9990 2 27513 5.9983 71.9108 0002740 94.6026 100.4595 1.00271230 87825
UTC large
Height (km)
Speed (km/s)
/
Latitude / Longitude
Inclination (degrees)
Orbital Period (minutes)
Azimuth
Elevation
Range (km)
Doppler Factor

Next 0 passes for location: London (51.5072 / 0.1276)

No passes found over London.
INTELSAT 906 (IS-906)